Weather History for Greensboro, NC

Change the Weather History Date:

Sunday, September 21, 2014

  Actual Average Record
Temperature  
Mean Temperature 72 °F 68 °F  
Max Temperature 86 °F 78 °F 94 °F (1931)
Min Temperature 58 °F 59 °F 39 °F (1918)
Degree Days  
Heating Degree Days 0 1  
Month to date heating degree days 0 9  
Since 1 July heating degree days 0 10  
Cooling Degree Days 7 5  
Month to date cooling degree days 185 153  
Year to date cooling degree days 1438 1415  
Growing Degree Days 22 (Base 50)    
Moisture  
Dew Point 62 °F    
Average Humidity 71    
Maximum Humidity 93    
Minimum Humidity 48    
Precipitation  
Precipitation 0.03 in 0.13 in 2.82 in (1947)
Month to date precipitation 2.57 3.11  
Year to date precipitation 28.45 31.90  
Sea Level Pressure  
Sea Level Pressure 29.87 in    
Wind  
Wind Speed 8 mph (West)    
Max Wind Speed 20 mph    
Max Gust Speed 28 mph    
Visibility 10 miles    
Events Rain    
T = Trace of Precipitation, MM = Missing Value Source: NWS Daily Summary

Daily Weather History Graph

Daily Weather History Graph

Search for Another Location

Airport:

Trip Planner

Search our weather history database for the weather conditions in past years. The results will help you decide how hot, cold, wet, or windy it might be!

Date:

Astronomy

Sep. 21, 2014 Rise Set
Actual Time 7:06 AM EDT 7:18 PM EDT
Civil Twilight 6:41 AM EDT 7:43 PM EDT
Nautical Twilight 6:11 AM EDT 8:13 PM EDT
Astronomical Twilight 5:40 AM EDT 8:43 PM EDT
Moon 4:42 AM EDT (9/21) 5:50 PM EDT (9/21)
Length of Visible Light 13h 02m
Length of Day
12h 11m
Waning Crescent, 6% of the Moon is Illuminated
Sep 21
Waning Crescent
Sep 24
New
Oct 1
First Quarter
Oct 8
Full
Oct 15
Last Quarter

Hourly Weather History & Observations

Time (EDT) Temp. Heat Index Dew Point Humidity Pressure Visibility Wind Dir Wind Speed Gust Speed Precip Events Conditions
1:54 AM 63.0 °F - 59.0 °F 87% 29.97 in 10.0 mi NNW 4.6 mph - N/A   Mostly Cloudy
2:54 AM 61.0 °F - 57.9 °F 90% 29.95 in 10.0 mi North 3.5 mph - N/A   Scattered Clouds
3:54 AM 62.1 °F - 57.9 °F 86% 29.93 in 10.0 mi North 3.5 mph - N/A   Partly Cloudy
4:54 AM 60.1 °F - 57.0 °F 90% 29.92 in 10.0 mi Calm Calm - N/A   Scattered Clouds
5:54 AM 61.0 °F - 57.9 °F 90% 29.92 in 10.0 mi Calm Calm - N/A   Scattered Clouds
6:54 AM 59.0 °F - 57.0 °F 93% 29.92 in 9.0 mi Calm Calm - N/A   Mostly Cloudy
7:54 AM 60.1 °F - 57.0 °F 90% 29.92 in 9.0 mi Calm Calm - N/A   Mostly Cloudy
8:54 AM 66.0 °F - 60.1 °F 81% 29.91 in 10.0 mi West 4.6 mph - N/A   Scattered Clouds
9:54 AM 72.0 °F - 60.1 °F 66% 29.91 in 10.0 mi WNW 10.4 mph - N/A   Partly Cloudy
10:54 AM 77.0 °F - 60.8 °F 57% 29.94 in 10.0 mi West 9.2 mph - N/A   Partly Cloudy
11:54 AM 80.1 °F 81.1 °F 61.0 °F 52% 29.88 in 10.0 mi West 9.2 mph - N/A   Partly Cloudy
12:54 PM 81.0 °F 81.7 °F 61.0 °F 50% 29.87 in 10.0 mi WNW 10.4 mph - N/A   Partly Cloudy
1:54 PM 82.9 °F 84.0 °F 63.0 °F 51% 29.83 in 10.0 mi West 9.2 mph 21.9 mph N/A   Partly Cloudy
2:54 PM 84.9 °F 85.9 °F 63.0 °F 48% 29.80 in 10.0 mi WSW 9.2 mph - N/A   Scattered Clouds
3:54 PM 84.0 °F 84.9 °F 63.0 °F 49% 29.80 in 10.0 mi West 15.0 mph - N/A   Mostly Cloudy
4:54 PM 84.0 °F 85.4 °F 64.0 °F 51% 29.79 in 10.0 mi WSW 10.4 mph - N/A   Mostly Cloudy
5:54 PM 82.0 °F 83.8 °F 64.9 °F 56% 29.78 in 10.0 mi WSW 9.2 mph - N/A   Mostly Cloudy
6:54 PM 79.0 °F - 64.0 °F 60% 29.81 in 10.0 mi West 13.8 mph 23.0 mph N/A   Mostly Cloudy
7:54 PM 75.9 °F - 64.9 °F 69% 29.82 in 10.0 mi West 8.1 mph - N/A   Scattered Clouds
8:54 PM 73.0 °F - 66.0 °F 79% 29.84 in 5.0 mi WSW 17.3 mph 27.6 mph 0.01 in Rain Light Rain
9:54 PM 70.0 °F - 68.0 °F 93% 29.85 in 9.0 mi SW 6.9 mph - 0.02 in   Scattered Clouds
10:54 PM 69.1 °F - 66.9 °F 93% 29.85 in 9.0 mi West 5.8 mph - N/A   Clear
11:54 PM 69.1 °F - 66.0 °F 90% 29.86 in 10.0 mi WNW 9.2 mph - N/A   Partly Cloudy